Location: Isle of Man Observatory
(54.1776°N, 4.6264°W)
Time: 06:43:19
(UTC+01:00)

OTV 5 (USA 277) - Visible Passes

Search period start: 11 December 2017 00:00
Search period end: 21 December 2017 00:00
Orbit: 404 x 417 km, 43.0° (Epoch: 07 September)

Date Brightness Start Highest point End Pass type
(mag) Time Alt. Az. Time Alt. Az. Time Alt. Az.
11 Dec ? 18:05:33 10° SSW 18:07:09 13° S 18:08:45 10° SSE visible
12 Dec ? 18:51:46 10° SSW 18:52:42 11° SSW 18:53:38 10° S visible
13 Dec ? 18:00:29 10° SSW 18:01:52 12° S 18:03:14 10° SSE visible
